Starlink 4021

operational
NORAD ID: 53149 Int'l Des: 2022-083 Owner: SPXS Country: US Constellation: starlink
LEOCIRCULAR

关于 Starlink 4021

正在加载描述...

实时位置

正在加载3D地球...

即将过境

高度历史

Altitude vs Time

uPlot chart will show altitude changes over time

两行轨道根数

1 53149U 22083T 25305.48363462 .00002655 00000-0 18495-3 0 9996
2 53149 53.2192 19.8599 0001506 100.8404 259.2758 15.08823443182003
Epoch: Nov 1, 2025 • Age: 17 hours

当前状态

高度 559.0 km
速度 7.58 km/s
星下点 -52.48°S, 160.58°E
发射日期 Jul 17, 2022
运行时间 3.2 years
类型 internet

技术详情

分类 Payload
质量 297.00 kg
干质量 275.00 kg
总质量 297.00 kg
长度 0.20 m
直径 2.80 m
跨度 9.00 m
形状 Box + pan
制造商 SPXS
平台类型 Starlink
阶段状态 In Orbit
所有者/国家 SPXS/US

大型星座

Loading constellations...